Weather History for LTAG - January, 2014

Change the Weather History Date:

Tuesday, January 7, 2014

  Actual Average Record
Temperature  
Mean Temperature 50 °F -  
Max Temperature 64 °F 59 °F 66 °F (2001)
Min Temperature 36 °F 42 °F 32 °F (2008)
Degree Days  
Heating Degree Days 15    
Moisture  
Dew Point 34 °F    
Average Humidity 65    
Maximum Humidity 100    
Minimum Humidity 21    
Precipitation  
Precipitation 0.00 in - - ()
Sea Level Pressure  
Sea Level Pressure 30.15 in    
Wind  
Wind Speed 3 mph ()    
Max Wind Speed 9 mph    
Max Gust Speed -    
Visibility 6.0 miles    
Events      
Averages and records for this station are not official NWS values.
T = Trace of Precipitation, MM = Missing Value Source: Averaged Metar Reports

Daily Weather History Graph

Daily Weather History Graph

Search for Another Location

Airport or City:

Trip Planner

Search our weather history database for the weather conditions in past years. The results will help you decide how hot, cold, wet, or windy it might be!

Date:

Astronomy

Jan. 07, 2014 Rise Set
Actual Time 6:52 AM EET 4:37 PM EET
Civil Twilight 6:23 AM EET 5:05 PM EET
Nautical Twilight 5:51 AM EET 5:38 PM EET
Astronomical Twilight 5:19 AM EET 6:09 PM EET
Moon 10:39 AM EET (1/7) 11:41 PM EET (1/7)
Length of Visible Light 10h 42m
Length of Day
9h 45m
Waxing Crescent, 42% of the Moon is Illuminated
Jan 7
Waxing Crescent
Jan 8
First Quarter
Jan 16
Full
Jan 24
Last Quarter
Jan 30
New

Hourly Weather History & Observations

Time (EET) Temp. Windchill Dew Point Humidity Pressure Visibility Wind Dir Wind Speed Gust Speed Precip Events Conditions
12:20 AM 39.2 °F - 37.4 °F 93% 30.15 in - North 2.3 mph - N/A   Clear
12:50 AM 39.2 °F - 35.6 °F 87% 30.15 in - North 2.3 mph - N/A   Clear
1:20 AM 39.2 °F - 35.6 °F 87% 30.15 in - North 2.3 mph - N/A   Clear
1:50 AM 39.2 °F - 33.8 °F 81% 30.15 in - NNE 2.3 mph - N/A   Clear
2:00 AM 39 °F - 34 °F 76% 30.18 in 6 mi NNE 2.3 mph - -  
2:20 AM 37.4 °F 33.8 °F 33.8 °F 87% 30.15 in - NNE 4.6 mph - N/A   Clear
2:50 AM 41.0 °F - 35.6 °F 81% 30.15 in - NNE 2.3 mph - N/A   Clear
3:20 AM 39.2 °F - 32.0 °F 75% 30.15 in - North 2.3 mph - N/A   Clear
3:50 AM 39.2 °F 37.0 °F 32.0 °F 75% 30.15 in - NNW 3.5 mph - N/A   Clear
4:20 AM 39.2 °F 35.9 °F 32.0 °F 75% 30.15 in - NE 4.6 mph - N/A   Clear
4:50 AM 39.2 °F 37.0 °F 33.8 °F 81% 30.15 in - NNW 3.5 mph - N/A   Clear
5:00 AM 39 °F - 33 °F 72% 30.17 in 6 mi NNW 3.5 mph - -  
5:20 AM 39.2 °F 37.0 °F 32.0 °F 75% 30.15 in - North 3.5 mph - N/A   Clear
5:50 AM 37.4 °F 34.9 °F 32.0 °F 81% 30.15 in - NNE 3.5 mph - N/A   Clear
6:20 AM 37.4 °F - 32.0 °F 81% 30.15 in - NNW 2.3 mph - N/A   Clear
6:50 AM 37.4 °F 34.9 °F 32.0 °F 81% 30.15 in - NNW 3.5 mph - N/A   Clear
7:20 AM 39.2 °F - 33.8 °F 81% 30.15 in - North 1.2 mph - N/A   Clear
7:50 AM 39.2 °F 37.0 °F 35.6 °F 87% 30.18 in - NW 3.5 mph - N/A   Clear
8:00 AM 39 °F - 35 °F 80% 30.19 in 6 mi NW 3.5 mph - -  
8:20 AM 42.8 °F - 37.4 °F 81% 30.18 in - NW 2.3 mph - N/A   Clear
8:50 AM 42.8 °F - 37.4 °F 81% 30.18 in - NW 2.3 mph - N/A   Clear
9:20 AM 50.0 °F - 37.4 °F 62% 30.18 in - NW 2.3 mph - N/A   Clear
9:50 AM 53.6 °F - 32.0 °F 44% 30.18 in - NNE 3.5 mph - N/A   Clear
10:20 AM 57.2 °F - 32.0 °F 38% 30.18 in - ESE 2.3 mph - N/A   Clear
10:50 AM 59.0 °F - 33.8 °F 39% 30.15 in - SE 3.5 mph - N/A   Clear
11:00 AM 59 °F - 33 °F 26% 30.17 in 6 mi SE 3.5 mph - -  
11:20 AM 60.8 °F - 32.0 °F 34% 30.15 in - SSW 4.6 mph - N/A   Clear
11:50 AM 60.8 °F - 32.0 °F 34% 30.15 in - South 2.3 mph - N/A   Clear
12:20 PM 60.8 °F - 32.0 °F 34% 30.15 in - North 2.3 mph - N/A   Clear
12:50 PM 62.6 °F - 32.0 °F 32% 30.12 in - South 4.6 mph - N/A   Clear
1:20 PM 62.6 °F - 32.0 °F 32% 30.12 in - SSE 4.6 mph - N/A   Clear
1:50 PM 62.6 °F - 32.0 °F 32% 30.12 in - WSW 1.2 mph - N/A   Clear
2:00 PM 63 °F - 33 °F 21% 30.13 in 6 mi WSW 1.2 mph - -  
2:20 PM 62.6 °F - 32.0 °F 32% 30.12 in - SSW 2.3 mph - N/A   Clear
2:50 PM 62.6 °F - 32.0 °F 32% 30.12 in - Calm Calm - N/A   Clear
3:20 PM 62.6 °F - 32.0 °F 32% 30.12 in - East 3.5 mph - N/A   Clear
3:50 PM 60.8 °F - 32.0 °F 34% 30.12 in - SSW 2.3 mph - N/A   Clear
4:20 PM 59.0 °F - 32.0 °F 36% 30.12 in - Calm Calm - N/A   Clear
4:50 PM 57.2 °F - 32.0 °F 38% 30.12 in - Calm Calm - N/A   Clear
5:00 PM 56 °F - 33 °F 29% 30.13 in 6 mi Calm Calm - -  
5:20 PM 55.4 °F - 33.8 °F 44% 30.12 in - SW 1.2 mph - N/A   Clear
5:50 PM 46.4 °F 44.3 °F 33.8 °F 62% 30.12 in - East 4.6 mph - N/A   Clear
6:20 PM 46.4 °F 45.2 °F 33.8 °F 62% 30.15 in - ENE 3.5 mph - N/A   Clear
7:20 PM 41.0 °F 35.8 °F 33.8 °F 76% 30.15 in - NE 8.1 mph - N/A   Clear
7:50 PM 41.0 °F 36.4 °F 33.8 °F 76% 30.15 in - ENE 6.9 mph - N/A   Clear
8:00 PM 41 °F - 34 °F 68% 30.17 in 6 mi ENE 6.9 mph - -  
8:20 PM 39.2 °F 33.6 °F 33.8 °F 81% 30.15 in - NE 8.1 mph - N/A   Clear
8:50 PM 39.2 °F 35.0 °F 35.6 °F 87% 30.15 in - NE 5.8 mph - N/A   Clear
9:20 PM 39.2 °F 35.9 °F 35.6 °F 87% 30.15 in - NE 4.6 mph - N/A   Clear
9:50 PM 39.2 °F 35.0 °F 35.6 °F 87% 30.15 in - NE 5.8 mph - N/A   Clear
10:20 PM 39.2 °F 35.9 °F 35.6 °F 87% 30.15 in - NE 4.6 mph - N/A   Clear
10:50 PM 39.2 °F 34.2 °F 37.4 °F 93% 30.12 in - NE 6.9 mph - N/A   Clear
11:00 PM 39 °F - 37 °F 92% 30.14 in 6 mi NE 6.9 mph - -  
11:20 PM 41.0 °F 35.2 °F 39.2 °F 93% 30.12 in - NE 9.2 mph - N/A   Clear
11:50 PM 37.4 °F 32.1 °F 37.4 °F 100% 30.12 in - NE 6.9 mph - N/A   Clear